Location: Walnut Point State Park
(39.6958°N, 88.0345°W)
Time: 15:35:26
(UTC-06:00)

Cosmos 1833 Rocket - Visible Passes

Search period start: 06 March 2015 00:00
Search period end: 16 March 2015 01:00
Orbit: 834 x 839 km, 71.0° (Epoch: 05 March)

Date Brightness Start Highest point End Pass type
(mag) Time Alt. Az. Time Alt. Az. Time Alt. Az.
07 Mar 4.4 05:44:00 10° N 05:49:06 35° ENE 05:54:14 10° SE visible
08 Mar 4.5 06:27:25 10° N 06:32:26 33° ENE 06:37:28 10° ESE visible
09 Mar 4.6 06:10:52 10° N 06:15:45 30° ENE 06:20:42 10° ESE visible
09 Mar 3.2 20:59:38 10° SSW 21:12:49 - NNE 21:03:20 42° S visible
09 Mar5.622:54:20N22:54:20N22:45:22Wvisible
10 Mar 4.7 05:54:19 10° N 05:59:05 28° NE 06:03:55 10° ESE visible
10 Mar 2.6 20:43:03 10° S 20:48:36 63° ESE 20:54:10 10° NNE visible
10 Mar 5.0 22:28:57 10° W 22:33:05 20° NW 22:37:03 10° N visible
11 Mar 4.8 05:37:46 10° N 05:42:24 26° NE 05:47:06 10° ESE visible
11 Mar 2.7 20:26:30 10° S 20:31:58 57° ESE 20:37:30 10° NNE visible
11 Mar 4.9 22:12:05 10° WSW 22:16:23 21° NW 22:20:33 10° N visible
12 Mar 4.9 05:21:15 10° N 05:25:43 24° NE 05:30:17 10° ESE visible
12 Mar 2.8 20:09:57 10° S 20:15:22 52° ESE 20:20:51 10° NNE visible
12 Mar 4.8 21:55:14 10° WSW 21:59:41 23° NW 22:04:02 10° N visible
13 Mar 5.0 05:04:43 10° N 05:09:02 23° NE 05:13:27 10° ESE visible
13 Mar 2.9 19:53:25 10° S 19:58:46 48° ESE 20:04:10 10° NE visible
13 Mar 4.8 21:38:24 10° WSW 21:43:00 25° NW 21:47:30 10° N visible
14 Mar 5.1 04:48:13 10° N 04:52:20 21° NE 04:56:36 10° ESE visible
14 Mar 2.8 06:31:15 10° NNW 06:36:44 58° WSW 06:42:13 10° S visible
14 Mar 3.0 19:36:53 10° S 19:42:09 44° ESE 19:47:29 10° NE visible
14 Mar 4.7 21:21:35 10° WSW 21:26:19 26° NW 21:30:58 10° N visible
15 Mar 5.2 04:31:43 10° N 04:35:38 20° NE 04:39:44 10° E visible
15 Mar 2.7 06:14:34 10° NNW 06:20:08 63° WSW 06:25:39 10° S visible
15 Mar 3.1 19:20:22 10° S 19:25:33 40° ESE 19:30:47 10° NE visible
15 Mar 4.6 21:04:47 10° WSW 21:09:38 28° NW 21:14:25 10° N visible
